User: anonymous   Login
Location: Bangkok
(13.7500°N, 100.5170°E)
Time: 23:47:52
(UTC+07:00)
Language:

SPOT 1/Viking Rocket - Orbit

View from above orbital plane
View from above orbital plane
View from above satellite
View from above satellite

Ground track
Ground track

The orbit data is extracted from the following two-line orbital elements,

1 16615U 86019C   15181.15673328  .00000046  00000-0  34375-4 0  9990
2 16615 098.7069 239.3325 0011702 002.9434 053.7073 14.31493967536769
Epoch (UTC): 30 June 2015 03:45:41
Eccentricity: 0.0011702
inclination: 98.7069°
perigee height: 778 km
apogee height: 795 km
right ascension of ascending node: 239.3325°
argument of perigee: 2.9434°
revolutions per day: 14.31493967
mean anomaly at epoch: 53.7073°
orbit number at epoch: 53676

The dashed part of the orbit path shows where the satellite is in the earth's shadow,  

DLR